Time,TemperatureF,DewpointF,PressureIn,WindDirection,WindDirectionDegrees,WindSpeedMPH,WindSpeedGustMPH,Humidity,HourlyPrecipIn,Conditions,Clouds,dailyrainin,SolarRadiationWatts/m^2,SoftwareType,DateUTC
2013-04-28 16:47:00,75.0,25.8,0.00,SSE,158,12.1,12.1,16,0.00,,---,0.00,0.00,VWS V14.01,2013-04-28 21:47:00,
2013-04-28 16:48:00,74.8,25.7,29.76,SSE,158,11.0,12.1,16,0.00,,---,0.00,0.00,VWS V14.01,2013-04-28 21:48:00,
2013-04-28 16:52:00,74.8,25.7,29.74,South,180,7.8,8.7,16,0.00,,---,0.00,0.00,VWS V14.01,2013-04-28 21:52:00,
2013-04-28 16:57:00,75.0,25.8,29.74,SSW,202,8.5,17.5,16,0.00,,---,0.00,0.00,VWS V14.01,2013-04-28 21:57:00,
2013-04-28 17:02:00,74.8,25.7,29.74,SSW,202,8.5,12.8,16,0.00,,---,0.00,0.00,VWS V14.01,2013-04-28 22:02:00,
2013-04-28 17:08:00,74.7,25.5,29.74,South,180,5.4,8.5,16,0.00,,---,0.00,0.00,VWS V14.01,2013-04-28 22:08:00,
2013-04-28 17:13:00,74.8,25.7,29.74,SSE,158,5.4,6.0,16,0.00,,---,0.00,0.00,VWS V14.01,2013-04-28 22:13:00,
2013-04-28 17:19:00,75.0,25.8,29.74,South,180,5.6,8.7,16,0.00,,---,0.00,0.00,VWS V14.01,2013-04-28 22:19:00,
2013-04-28 17:25:00,75.2,24.4,29.74,SSE,158,11.0,11.0,15,0.00,,---,0.00,0.00,VWS V14.01,2013-04-28 22:25:00,
2013-04-28 17:31:00,75.2,24.4,29.74,SSW,202,4.9,9.8,15,0.00,,---,0.00,0.00,VWS V14.01,2013-04-28 22:31:00,
2013-04-28 17:37:00,75.4,24.6,29.74,SSW,202,12.3,12.3,15,0.00,,---,0.00,0.00,VWS V14.01,2013-04-28 22:37:00,
2013-04-28 17:42:00,75.0,25.8,29.74,SSW,202,9.2,9.2,16,0.00,,---,0.00,0.00,VWS V14.01,2013-04-28 22:42:00,
2013-04-28 17:48:00,75.0,25.8,29.74,SSE,158,5.6,11.0,16,0.00,,---,0.00,0.00,VWS V14.01,2013-04-28 22:48:00,
2013-04-28 17:54:00,74.8,25.7,29.74,SSE,158,8.7,10.3,16,0.00,,---,0.00,0.00,VWS V14.01,2013-04-28 22:54:00,
2013-04-28 18:00:00,74.5,25.4,29.74,SSW,202,8.7,12.8,16,0.00,,---,0.00,0.00,VWS V14.01,2013-04-28 23:00:00,
2013-04-28 18:05:00,74.5,25.4,29.74,SE,135,11.0,11.0,16,0.00,,---,0.00,0.00,VWS V14.01,2013-04-28 23:05:00,
2013-04-28 18:10:00,74.3,25.2,29.74,SW,225,7.6,7.6,16,0.00,,---,0.00,0.00,VWS V14.01,2013-04-28 23:10:00,
2013-04-28 18:15:00,74.3,25.2,29.74,SW,225,7.6,7.6,16,0.00,,---,0.00,0.00,VWS V14.01,2013-04-28 23:15:00,
2013-04-28 18:21:00,74.3,25.2,29.74,SSE,158,5.4,5.4,16,0.00,,---,0.00,0.00,VWS V14.01,2013-04-28 23:21:00,
2013-04-28 18:27:00,73.9,25.0,29.74,SSW,202,8.5,8.5,16,0.00,,---,0.00,0.00,VWS V14.01,2013-04-28 23:27:00,
2013-04-28 18:32:00,73.6,24.7,29.74,SSE,158,7.8,7.8,16,0.00,,---,0.00,0.00,VWS V14.01,2013-04-28 23:32:00,
2013-04-28 18:38:00,73.8,24.8,29.74,South,180,10.3,10.3,16,0.00,,---,0.00,0.00,VWS V14.01,2013-04-28 23:38:00,
2013-04-28 18:44:00,73.4,24.5,29.74,SSW,202,6.3,6.3,16,0.00,,---,0.00,0.00,VWS V14.01,2013-04-28 23:44:00,
2013-04-28 18:49:00,73.4,24.5,29.74,South,180,8.7,8.7,16,0.00,,---,0.00,0.00,VWS V14.01,2013-04-28 23:49:00,
2013-04-28 18:54:00,73.2,24.4,29.74,SSE,158,3.6,3.6,16,0.00,,---,0.00,0.00,VWS V14.01,2013-04-28 23:54:00,
2013-04-28 19:00:00,73.0,24.2,29.74,SSE,158,7.8,7.8,16,0.00,,---,0.00,0.00,VWS V14.01,2013-04-29 00:00:00,
2013-04-28 19:06:00,72.7,23.9,29.74,South,180,10.5,10.5,16,0.00,,---,0.00,0.00,VWS V14.01,2013-04-29 00:06:00,
2013-04-28 19:12:00,72.3,23.6,29.71,SSE,158,5.6,5.8,16,0.00,,---,0.00,0.00,VWS V14.01,2013-04-29 00:12:00,
2013-04-28 19:17:00,72.1,23.5,29.71,SSE,158,4.9,4.9,16,0.00,,---,0.00,0.00,VWS V14.01,2013-04-29 00:17:00,
2013-04-28 19:23:00,71.6,23.1,29.74,SSE,158,7.8,9.6,16,0.00,,---,0.00,0.00,VWS V14.01,2013-04-29 00:23:00,
2013-04-28 19:29:00,71.4,24.4,29.74,SSE,158,6.5,6.5,17,0.00,,---,0.00,0.00,VWS V14.01,2013-04-29 00:29:00,
2013-04-28 19:34:00,70.9,23.9,29.74,SSE,158,6.3,9.8,17,0.00,,---,0.00,0.00,VWS V14.01,2013-04-29 00:34:00,
2013-04-28 19:40:00,70.3,23.5,29.74,SSE,158,6.5,7.6,17,0.00,,---,0.00,0.00,VWS V14.01,2013-04-29 00:40:00,
2013-04-28 19:45:00,70.3,23.5,29.74,South,180,4.0,8.7,17,0.00,,---,0.00,0.00,VWS V14.01,2013-04-29 00:45:00,
2013-04-28 19:50:00,69.3,22.6,29.76,SSE,158,7.8,7.8,17,0.00,,---,0.00,0.00,VWS V14.01,2013-04-29 00:50:00,
2013-04-28 19:56:00,68.7,22.2,29.76,SSE,158,6.3,6.3,17,0.00,,---,0.00,0.00,VWS V14.01,2013-04-29 00:56:00,
2013-04-28 20:01:00,68.2,21.7,29.76,SSE,158,4.9,6.3,17,0.00,,---,0.00,0.00,VWS V14.01,2013-04-29 01:01:00,
2013-04-28 20:07:00,68.0,21.6,29.74,SE,135,8.5,8.5,17,0.00,,---,0.00,0.00,VWS V14.01,2013-04-29 01:07:00,
2013-04-28 20:12:00,67.5,21.2,29.74,SE,135,5.8,7.8,17,0.00,,---,0.00,0.00,VWS V14.01,2013-04-29 01:12:00,
2013-04-28 20:17:00,67.5,21.2,29.74,SSE,158,5.6,6.0,17,0.00,,---,0.00,0.00,VWS V14.01,2013-04-29 01:17:00,
2013-04-28 20:23:00,66.9,20.7,29.74,South,180,4.7,4.7,17,0.00,,---,0.00,0.00,VWS V14.01,2013-04-29 01:23:00,